Home > Weather > Aurillac > Past weeks

Flag for France Past Weather in Aurillac, Auvergne, France — Yesterday and Last 2 Weeks

Now
73 °F

Mild.


Feels Like: 76 °F
Forecast: 53 / 82 °F
Wind: 12 mph from Northwest

Location: Aurillac

Current Time: Jul 28, 2016 at 8:22:46 PM

Latest Report: Jul 28, 2016 at 7:00 PM


Visibility: 37 mi

Pressure: 30.05 "Hg (27.95 "Hg at 627m altitude)

Humidity: 59%

Dew Point: 58 °F

Location of AurillacLocation

Past Weather in Aurillac — Graph

°F

Aurillac Temperature Yesterday

Maximum temperature yesterday: 76 °F (at 5:00 PM)
Minimum temperature yesterday: 55 °F (at 7:00 AM)
Average temperature yesterday: 67 °F

High & Low Weather Summary for the Past Weeks

 TemperatureHumidityPressure
High91 °F (Jul 19, 4:00 PM)99% (Jul 23, 5:00 AM)30.38 "Hg (Jul 23, 5:00 AM)
Low43 °F (Jul 15, 6:00 AM)17% (Jul 19, 4:00 PM)29.87 "Hg (Jul 20, 12:00 PM)
Average66 °F65%30.11 "Hg
* Reported Jul 13 7:00 PM — Jul 28 7:00 PM, Aurillac, Weather by CustomWeather, © 2016

Note: Actual official high and low records may vary slightly from our data, if they occured in-between our weather recording intervals... More about our weather records

Advertising

Aurillac Weather History for the Previous 24 Hours

Scroll right to see more
 ConditionsComfort  
Time TempWeatherWind HumidityBarometerVisibility
7:00 PM
Thu, Jul 28
73 °FMild.12 mph59%30.05 "Hg37 mi
3:00 PM71 °FMild.9 mph55%30.09 "Hg12 mi
2:00 PM70 °FMild.9 mph62%30.10 "Hg31 mi
1:00 PM70 °FMild.9 mph63%30.11 "Hg12 mi
12:00 PM67 °FMild.8 mph70%30.13 "Hg12 mi
11:00 AM66 °FMild.8 mph72%30.13 "Hg12 mi
10:00 AM63 °FMild.7 mph78%30.14 "Hg22 mi
9:00 AM60 °FCool.2 mph82%30.15 "Hg12 mi
8:00 AM57 °FCool.1 mph89%30.16 "Hg12 mi
7:00 AM53 °FCool.3 mph94%30.17 "Hg10 mi
6:00 AM52 °FCool.1 mph93%30.17 "Hg4 mi
5:00 AM53 °FCool.1 mph95%30.16 "Hg12 mi
4:00 AM54 °FCool.No wind94%30.16 "Hg18 mi
3:00 AM56 °FCool.1 mph90%30.16 "Hg28 mi
2:00 AM59 °FCool.3 mph82%30.15 "Hg37 mi
1:00 AM61 °FCool.2 mph79%30.15 "Hg34 mi
12:00 AM62 °FMild.1 mph72%30.14 "Hg37 mi
11:00 PM
Wed, Jul 27
64 °FMild.1 mph70%30.12 "Hg37 mi
10:00 PM67 °FMild.3 mph63%30.11 "Hg34 mi
9:00 PM71 °FMild.7 mph55%30.07 "Hg37 mi
8:00 PM73 °FOvercast.10 mph50%30.06 "Hg34 mi
Weather by CustomWeather, © 2016

See weather overviewHow to use our weather pages